Volver al catálogo

MINOTAUR 4 DEB

ActivoVLEO
NORAD 54256·DEBRIS·🇺🇸 United States

Lanzado Jul 15, 2020 desde Wallops Flight Facility

Loading…

Próximos Pases (próximas 24 horas)

TLE

ActualizadoSource: Space-Track

Época: Sep 14, 2026, 04:43 UTC

1 54256U 20046AK  26257.19678342  .00020879  00000-0  54790-3 0  9990
2 54256  54.2318 189.7786 0016099  95.2803 265.0053 15.38530580259965

Sigue MINOTAUR 4 DEB en tiempo real con AllMySat

Download on the App Store